EW7504 Weather Reports


Display with metric or nautical units.
time (UTC)temp
F
wind
direction
speed
MPH
gust
MPH
rain 1hr
in
rain 24hr
in
rain mn
in
humidity
%
barometer
mb
20181121073615 47 287 0.0 2.0 0.00 0.00 0.00 42 1021.0
20181121070612 48 287 0.0 1.0 0.00 0.00 0.00 41 1020.9
20181121053603 52 297 1.0 3.0 0.00 0.00 0.00 34 1020.3
20181121050615 54 298 0.0 3.0 0.00 0.00 0.00 33 1020.0
20181121043620 55 298 2.0 6.0 0.00 0.00 0.00 32 1019.9
20181121040616 54 298 1.0 4.0 0.00 0.00 0.00 32 1019.5
20181121033608 55 299 1.0 1.0 0.00 0.00 0.00 31 1019.4
20181121030602 57 300 1.0 2.0 0.00 0.00 0.00 29 1018.9
20181121023617 58 301 1.0 2.0 0.00 0.00 0.00 27 1018.5
20181121020611 62 301 0.0 1.0 0.00 0.00 0.00 24 1018.5
20181121013617 64 301 1.0 5.0 0.00 0.00 0.00 23 1018.1
20181121010616 66 301 2.0 2.0 0.00 0.00 0.00 21 1018.0
20181121003610 69 301 1.0 3.0 0.00 0.00 0.00 19 1017.4
20181121000606 72 9 0.0 6.0 0.00 0.00 0.00 18 1016.7
20181120233608 74 13 3.0 7.0 0.00 0.00 0.00 16 1016.5
20181120230621 75 197 0.0 2.0 0.00 0.00 0.00 17 1016.2
20181120223616 76 197 2.0 3.0 0.00 0.00 0.00 15 1016.2
20181120220613 76 155 4.0 4.0 0.00 0.00 0.00 15 1016.4
20181120213608 75 197 3.0 5.0 0.00 0.00 0.00 16 1016.3
20181120210616 76 160 4.0 8.0 0.00 0.00 0.00 15 1016.6
20181120203615 77 122 6.0 13.0 0.00 0.00 0.00 15 1016.7
20181120200609 77 165 6.0 12.0 0.00 0.00 0.00 15 1017.2
20181120193611 77 143 8.0 13.0 0.00 0.00 0.00 15 1017.8
20181120190610 76 143 8.0 13.0 0.00 0.00 0.00 15 1018.0
20181120183602 75 117 7.0 15.0 0.00 0.00 0.00 15 1018.4
20181120180612 74 117 5.0 12.0 0.00 0.00 0.00 15 1018.8
20181120173605 71 111 1.0 7.0 0.00 0.00 0.00 17 1019.1
20181120170613 68 264 2.0 4.0 0.00 0.00 0.00 19 1019.4
20181120163611 66 264 2.0 7.0 0.00 0.00 0.00 20 1019.7
20181120160602 63 263 2.0 11.0 0.00 0.00 0.00 21 1019.5
20181120153612 59 264 5.0 8.0 0.00 0.00 0.00 23 1019.6
20181120150615 57 265 6.0 10.0 0.00 0.00 0.00 24 1019.5